Weather History for Chanute, KS

Change the Weather History Date:

Wednesday, February 13, 2013

  Actual Average Record
Temperature  
Mean Temperature 40 °F 37 °F  
Max Temperature 52 °F 47 °F 77 °F (1921)
Min Temperature 28 °F 26 °F 3 °F (1899)
Degree Days  
Heating Degree Days 25 28  
Month to date heating degree days 329 388  
Since 1 July heating degree days 2618 3187  
Cooling Degree Days 0 0  
Month to date cooling degree days 0 0  
Year to date cooling degree days 1 0  
Moisture  
Dew Point 31 °F    
Average Humidity 72    
Maximum Humidity 100    
Minimum Humidity 44    
Precipitation  
Precipitation 0.00 in 0.06 in 1.25 in (1978)
Month to date precipitation 0.47 0.76  
Year to date precipitation 2.84 2.02  
Sea Level Pressure  
Sea Level Pressure 29.95 in    
Wind  
Wind Speed 9 mph (SW)    
Max Wind Speed 20 mph    
Max Gust Speed 23 mph    
Visibility 10 miles    
Events      
T = Trace of Precipitation, MM = Missing Value Source: NWS Daily Summary

Daily Weather History Graph

Daily Weather History Graph

Search for Another Location

Airport:

Trip Planner

Search our weather history database for the weather conditions in past years. The results will help you decide how hot, cold, wet, or windy it might be!

Date:

Astronomy

Feb. 13, 2013 Rise Set
Actual Time 7:13 AM CST 5:59 PM CST
Civil Twilight 6:46 AM CST 6:26 PM CST
Nautical Twilight 6:15 AM CST 6:57 PM CST
Astronomical Twilight 5:45 AM CST 7:27 PM CST
Moon 8:48 AM CST (2/13) 9:57 PM CST (2/13)
Length of Visible Light 11h 39m
Length of Day
10h 45m
Waxing Crescent, 14% of the Moon is Illuminated
Feb 13
Waxing Crescent
Feb 17
First Quarter
Feb 25
Full
Mar 4
Last Quarter
Mar 11
New

Hourly Weather History & Observations

Time (CST) Temp. Windchill Dew Point Humidity Pressure Visibility Wind Dir Wind Speed Gust Speed Precip Events Conditions
12:52 AM 34.0 °F - 30.9 °F 89% 30.00 in 10.0 mi Calm Calm - N/A   Mostly Cloudy
1:52 AM 32.0 °F 27.5 °F 30.2 °F 93% 29.99 in 7.0 mi WSW 4.6 mph - N/A   Partly Cloudy
2:52 AM 30.9 °F 25.2 °F 28.0 °F 89% 29.99 in 9.0 mi SW 5.8 mph - N/A   Clear
3:52 AM 30.0 °F 23.2 °F 28.9 °F 96% 29.96 in 8.0 mi SSW 6.9 mph - N/A   Clear
4:52 AM 30.0 °F 21.1 °F 28.9 °F 96% 29.96 in 9.0 mi SSW 10.4 mph - N/A   Clear
5:52 AM 28.9 °F 21.9 °F 28.0 °F 96% 29.98 in 8.0 mi WSW 6.9 mph - N/A   Clear
6:52 AM 28.0 °F 21.7 °F 27.0 °F 96% 29.99 in 8.0 mi WSW 5.8 mph - N/A   Clear
7:52 AM 28.9 °F 22.8 °F 27.0 °F 92% 29.98 in 8.0 mi WSW 5.8 mph - N/A   Clear
8:52 AM 32.0 °F 24.2 °F 28.9 °F 88% 29.99 in 10.0 mi West 9.2 mph - N/A   Clear
9:52 AM 36.0 °F 29.6 °F 30.9 °F 82% 29.99 in 10.0 mi WSW 8.1 mph - N/A   Clear
10:52 AM 39.0 °F 34.0 °F 32.0 °F 76% 30.00 in 10.0 mi WSW 6.9 mph - N/A   Clear
11:52 AM 44.1 °F 39.5 °F 33.1 °F 65% 29.98 in 10.0 mi SW 8.1 mph - N/A   Clear
12:52 PM 46.9 °F - 35.1 °F 63% 29.96 in 10.0 mi SW 11.5 mph 17.3 mph N/A   Clear
1:52 PM 48.9 °F - 35.1 °F 59% 29.93 in 10.0 mi SSW 11.5 mph - N/A   Clear
2:52 PM 51.1 °F - 34.0 °F 52% 29.90 in 10.0 mi SSW 17.3 mph - N/A   Clear
3:52 PM 51.1 °F - 30.9 °F 46% 29.90 in 10.0 mi SW 13.8 mph 21.9 mph N/A   Clear
4:52 PM 48.9 °F - 32.0 °F 52% 29.89 in 10.0 mi SSW 15.0 mph - N/A   Clear
5:52 PM 45.0 °F 38.5 °F 32.0 °F 60% 29.89 in 10.0 mi SSW 13.8 mph - N/A   Clear
6:52 PM 42.1 °F 36.1 °F 32.0 °F 67% 29.91 in 10.0 mi SW 10.4 mph - N/A   Clear
7:52 PM 41.0 °F 34.7 °F 30.9 °F 67% 29.91 in 10.0 mi SW 10.4 mph - N/A   Clear
8:52 PM 41.0 °F 34.3 °F 30.9 °F 67% 29.91 in 10.0 mi SW 11.5 mph - N/A   Clear
9:52 PM 39.0 °F 32.8 °F 30.0 °F 70% 29.91 in 10.0 mi SW 9.2 mph - N/A   Clear
10:52 PM 37.9 °F 32.1 °F 28.9 °F 70% 29.93 in 10.0 mi WSW 8.1 mph - N/A   Clear
11:52 PM 37.9 °F 32.1 °F 28.9 °F 70% 29.92 in 10.0 mi SW 8.1 mph - N/A   Clear